User: anonymous   Login
Location: Cuiry
(49.3858°N, 3.7708°E)
Time: 16:23:36
(UTC+00:00)
Language:

Cosmos 676 Rocket - Orbit

View from above orbital plane
View from above orbital plane
View from above satellite
View from above satellite

Ground track
Ground track

The orbit is defined by the following mean orbital elements,

1 07434U          26076.20693012 +.00000000 +00000-0 +94263-4 0 00003
2 07434  74.0436 102.4577 0021527 301.2968  58.6078 14.38192697    00
Epoch (UTC): 17 March 2026 04:57:58
Eccentricity: 0.0021527
inclination: 74.0436°
perigee height: 749 km
apogee height: 780 km
right ascension of ascending node: 102.4577°
argument of perigee: 301.2968°
revolutions per day: 14.38192697
mean anomaly at epoch: 58.6078°

The dashed part of the orbit path shows where the satellite is in the earth's shadow,  

DLR